Time,TemperatureF,DewpointF,PressureIn,WindDirection,WindDirectionDegrees,WindSpeedMPH,WindSpeedGustMPH,Humidity,HourlyPrecipIn,Conditions,Clouds,dailyrainin,SoftwareType,DateUTC
2013-05-06 00:01:00,38.4,37.8,30.25,WSW,248,0.0,0.0,98,0.00,,,0.00,WUHU216PEETBRO,2013-05-06 04:01:00,
2013-05-06 00:06:00,37.8,37.3,30.26,WSW,248,0.0,0.0,98,0.00,,,0.00,WUHU216PEETBRO,2013-05-06 04:06:00,
2013-05-06 00:11:00,37.6,37.0,30.25,WSW,248,0.0,0.0,98,0.00,,,0.00,WUHU216PEETBRO,2013-05-06 04:11:00,
2013-05-06 00:16:00,37.4,36.8,30.25,WSW,248,0.0,0.0,98,0.00,,,0.00,WUHU216PEETBRO,2013-05-06 04:16:00,
2013-05-06 00:21:00,36.8,36.3,30.25,WSW,248,0.0,0.0,98,0.00,,,0.00,WUHU216PEETBRO,2013-05-06 04:21:00,
2013-05-06 00:26:00,36.9,36.4,30.26,WSW,248,0.0,0.0,98,0.00,,,0.00,WUHU216PEETBRO,2013-05-06 04:26:00,
2013-05-06 00:31:00,36.8,36.2,30.25,WSW,248,0.0,0.0,98,0.00,,,0.00,WUHU216PEETBRO,2013-05-06 04:31:00,
2013-05-06 00:36:00,36.7,36.3,30.25,WSW,248,0.0,0.0,98,0.00,,,0.00,WUHU216PEETBRO,2013-05-06 04:36:00,
2013-05-06 00:41:00,36.9,36.5,30.25,WSW,248,0.0,0.0,99,0.00,,,0.00,WUHU216PEETBRO,2013-05-06 04:41:00,
2013-05-06 00:46:00,36.6,36.2,30.25,WSW,248,0.0,0.0,99,0.00,,,0.00,WUHU216PEETBRO,2013-05-06 04:46:00,
2013-05-06 00:51:00,36.3,36.0,30.25,WSW,248,0.0,0.0,99,0.00,,,0.00,WUHU216PEETBRO,2013-05-06 04:51:00,
2013-05-06 00:56:00,35.7,35.3,30.25,WSW,248,0.0,0.0,99,0.00,,,0.00,WUHU216PEETBRO,2013-05-06 04:56:00,
2013-05-06 01:01:00,35.5,35.2,30.25,WSW,248,0.0,0.0,99,0.00,,,0.00,WUHU216PEETBRO,2013-05-06 05:01:00,
2013-05-06 01:06:00,35.5,35.2,30.25,WSW,248,0.0,0.0,99,0.00,,,0.00,WUHU216PEETBRO,2013-05-06 05:06:00,
2013-05-06 01:11:00,35.4,35.1,30.25,WSW,248,0.0,0.0,99,0.00,,,0.00,WUHU216PEETBRO,2013-05-06 05:11:00,
2013-05-06 01:16:00,35.5,35.2,30.25,WSW,248,0.0,0.0,99,0.00,,,0.00,WUHU216PEETBRO,2013-05-06 05:16:00,
2013-05-06 01:21:00,35.3,35.0,30.25,WSW,248,0.0,0.0,99,0.00,,,0.00,WUHU216PEETBRO,2013-05-06 05:21:00,
2013-05-06 01:26:00,35.0,34.7,30.25,WSW,248,0.0,0.0,99,0.00,,,0.00,WUHU216PEETBRO,2013-05-06 05:26:00,
2013-05-06 01:31:00,34.8,34.5,30.24,WSW,248,0.0,0.0,99,0.00,,,0.00,WUHU216PEETBRO,2013-05-06 05:31:00,
2013-05-06 01:36:00,35.0,34.7,30.24,WSW,248,0.0,0.0,99,0.00,,,0.00,WUHU216PEETBRO,2013-05-06 05:36:00,
2013-05-06 01:41:00,35.2,35.0,30.24,WSW,248,0.0,0.0,99,0.00,,,0.00,WUHU216PEETBRO,2013-05-06 05:41:00,
2013-05-06 01:46:00,34.8,34.5,30.24,WSW,248,0.0,0.0,99,0.00,,,0.00,WUHU216PEETBRO,2013-05-06 05:46:00,
2013-05-06 01:51:00,35.2,34.9,30.24,WSW,248,0.0,0.0,99,0.00,,,0.00,WUHU216PEETBRO,2013-05-06 05:51:00,
2013-05-06 01:56:00,35.1,34.8,30.24,WSW,248,0.0,0.0,99,0.00,,,0.00,WUHU216PEETBRO,2013-05-06 05:56:00,
2013-05-06 02:01:00,35.4,35.1,30.24,WSW,248,0.0,0.0,99,0.00,,,0.00,WUHU216PEETBRO,2013-05-06 06:01:00,
2013-05-06 02:06:00,34.7,34.4,30.24,WSW,248,0.0,0.0,99,0.00,,,0.00,WUHU216PEETBRO,2013-05-06 06:06:00,
2013-05-06 02:11:00,34.5,34.2,30.24,WSW,248,0.0,0.0,99,0.00,,,0.00,WUHU216PEETBRO,2013-05-06 06:11:00,
2013-05-06 02:16:00,34.0,33.7,30.24,WSW,248,0.0,0.0,99,0.00,,,0.00,WUHU216PEETBRO,2013-05-06 06:16:00,
2013-05-06 02:21:00,34.2,33.9,30.24,WSW,248,0.0,0.0,99,0.00,,,0.00,WUHU216PEETBRO,2013-05-06 06:21:00,
2013-05-06 02:26:00,34.0,33.7,30.24,WSW,248,0.0,0.0,99,0.00,,,0.00,WUHU216PEETBRO,2013-05-06 06:26:00,
2013-05-06 02:31:00,33.8,33.5,30.24,WSW,248,0.0,0.0,99,0.00,,,0.00,WUHU216PEETBRO,2013-05-06 06:31:00,
2013-05-06 02:36:00,33.8,33.6,30.24,WSW,248,0.0,0.0,99,0.00,,,0.00,WUHU216PEETBRO,2013-05-06 06:36:00,
2013-05-06 02:41:00,33.7,33.5,30.24,WSW,248,0.0,0.0,99,0.00,,,0.00,WUHU216PEETBRO,2013-05-06 06:41:00,
2013-05-06 02:46:00,33.6,33.4,30.24,WSW,248,0.0,0.0,99,0.00,,,0.00,WUHU216PEETBRO,2013-05-06 06:46:00,
2013-05-06 02:51:00,34.1,33.9,30.24,WSW,248,0.0,0.0,99,0.00,,,0.00,WUHU216PEETBRO,2013-05-06 06:51:00,
2013-05-06 02:56:00,33.5,33.3,30.24,WSW,248,0.0,0.0,99,0.00,,,0.00,WUHU216PEETBRO,2013-05-06 06:56:00,
2013-05-06 03:01:00,33.4,33.2,30.23,WSW,248,0.0,0.0,99,0.00,,,0.00,WUHU216PEETBRO,2013-05-06 07:01:00,
2013-05-06 03:06:00,33.4,33.2,30.24,WSW,248,0.0,0.0,99,0.00,,,0.00,WUHU216PEETBRO,2013-05-06 07:06:00,
2013-05-06 03:11:00,33.4,33.1,30.23,WSW,248,0.0,0.0,99,0.00,,,0.00,WUHU216PEETBRO,2013-05-06 07:11:00,
2013-05-06 03:16:00,33.3,33.1,30.23,WSW,248,0.0,0.0,99,0.00,,,0.00,WUHU216PEETBRO,2013-05-06 07:16:00,
2013-05-06 03:21:00,33.3,33.1,30.23,WSW,248,0.0,0.0,99,0.00,,,0.00,WUHU216PEETBRO,2013-05-06 07:21:00,
2013-05-06 03:26:00,32.5,32.2,30.23,WSW,248,0.0,0.0,99,0.00,,,0.00,WUHU216PEETBRO,2013-05-06 07:26:00,
2013-05-06 03:31:00,33.1,32.8,30.23,WSW,248,0.0,0.0,99,0.00,,,0.00,WUHU216PEETBRO,2013-05-06 07:31:00,
2013-05-06 03:36:00,32.7,32.5,30.23,WSW,248,0.0,0.0,99,0.00,,,0.00,WUHU216PEETBRO,2013-05-06 07:36:00,
2013-05-06 03:41:00,33.0,32.8,30.23,WSW,248,0.0,0.0,99,0.00,,,0.00,WUHU216PEETBRO,2013-05-06 07:41:00,
2013-05-06 03:46:00,32.3,32.1,30.23,WSW,248,0.0,0.0,99,0.00,,,0.00,WUHU216PEETBRO,2013-05-06 07:46:00,
2013-05-06 03:51:00,32.0,31.8,30.23,WSW,248,0.0,0.0,99,0.00,,,0.00,WUHU216PEETBRO,2013-05-06 07:51:00,
2013-05-06 03:56:00,32.1,31.9,30.23,WSW,248,0.0,0.0,99,0.00,,,0.00,WUHU216PEETBRO,2013-05-06 07:56:00,
2013-05-06 04:01:00,32.0,31.8,30.23,WSW,248,0.0,0.0,99,0.00,,,0.00,WUHU216PEETBRO,2013-05-06 08:01:00,
2013-05-06 04:06:00,31.9,31.7,30.23,WSW,248,0.0,0.0,99,0.00,,,0.00,WUHU216PEETBRO,2013-05-06 08:06:00,
2013-05-06 04:11:00,31.8,31.6,30.23,WSW,248,0.0,0.0,99,0.00,,,0.00,WUHU216PEETBRO,2013-05-06 08:11:00,
2013-05-06 04:16:00,32.1,31.8,30.23,WSW,248,0.0,0.0,99,0.00,,,0.00,WUHU216PEETBRO,2013-05-06 08:16:00,
2013-05-06 04:21:00,31.8,31.6,30.23,WSW,248,0.0,0.0,99,0.00,,,0.00,WUHU216PEETBRO,2013-05-06 08:21:00,
2013-05-06 04:26:00,31.9,31.7,30.23,WSW,248,0.0,0.0,99,0.00,,,0.00,WUHU216PEETBRO,2013-05-06 08:26:00,
2013-05-06 04:31:00,32.8,32.6,30.23,WSW,248,0.0,0.0,99,0.00,,,0.00,WUHU216PEETBRO,2013-05-06 08:31:00,
2013-05-06 04:36:00,32.5,32.3,30.23,WSW,248,0.0,0.0,99,0.00,,,0.00,WUHU216PEETBRO,2013-05-06 08:36:00,
2013-05-06 04:41:00,31.7,31.5,30.23,WSW,248,0.0,0.0,99,0.00,,,0.00,WUHU216PEETBRO,2013-05-06 08:41:00,
2013-05-06 04:46:00,31.8,31.6,30.24,WSW,248,0.0,0.0,99,0.00,,,0.00,WUHU216PEETBRO,2013-05-06 08:46:00,
2013-05-06 04:51:00,31.6,31.4,30.24,WSW,248,0.0,0.0,99,0.00,,,0.00,WUHU216PEETBRO,2013-05-06 08:51:00,
2013-05-06 04:56:00,31.6,31.4,30.24,WSW,248,0.0,0.0,99,0.00,,,0.00,WUHU216PEETBRO,2013-05-06 08:56:00,
2013-05-06 05:01:00,31.3,31.0,30.24,WSW,248,0.0,0.0,99,0.00,,,0.00,WUHU216PEETBRO,2013-05-06 09:01:00,
2013-05-06 05:06:00,31.2,31.0,30.24,WSW,248,0.0,0.0,99,0.00,,,0.00,WUHU216PEETBRO,2013-05-06 09:06:00,
2013-05-06 05:11:00,31.2,30.9,30.24,WSW,248,0.0,0.0,99,0.00,,,0.00,WUHU216PEETBRO,2013-05-06 09:11:00,
2013-05-06 05:16:00,31.4,31.3,30.24,WSW,248,0.0,0.0,100,0.00,,,0.00,WUHU216PEETBRO,2013-05-06 09:16:00,
2013-05-06 05:21:00,31.5,31.4,30.24,North,350,0.2,3.2,100,0.00,,,0.00,WUHU216PEETBRO,2013-05-06 09:21:00,
2013-05-06 05:26:00,31.4,31.3,30.24,North,358,0.8,3.2,100,0.00,,,0.00,WUHU216PEETBRO,2013-05-06 09:26:00,
2013-05-06 05:31:00,31.6,31.5,30.24,North,2,2.4,3.7,100,0.00,,,0.00,WUHU216PEETBRO,2013-05-06 09:31:00,
2013-05-06 05:36:00,31.5,31.3,30.24,NNW,344,0.7,3.7,99,0.00,,,0.00,WUHU216PEETBRO,2013-05-06 09:36:00,
2013-05-06 05:41:00,31.6,31.5,30.24,NNW,342,0.0,2.9,100,0.00,,,0.00,WUHU216PEETBRO,2013-05-06 09:41:00,
2013-05-06 05:46:00,31.7,31.6,30.24,NNW,342,0.0,1.1,100,0.00,,,0.00,WUHU216PEETBRO,2013-05-06 09:46:00,
2013-05-06 05:51:00,32.0,31.9,30.24,NNW,342,0.0,0.0,100,0.00,,,0.00,WUHU216PEETBRO,2013-05-06 09:51:00,
2013-05-06 05:56:00,32.2,32.2,30.24,NNW,342,0.0,0.0,100,0.00,,,0.00,WUHU216PEETBRO,2013-05-06 09:56:00,
2013-05-06 06:01:00,32.4,32.3,30.24,NNW,342,0.0,0.0,100,0.00,,,0.00,WUHU216PEETBRO,2013-05-06 10:01:00,
2013-05-06 06:06:00,32.3,32.3,30.24,NNW,342,0.0,0.0,100,0.00,,,0.00,WUHU216PEETBRO,2013-05-06 10:06:00,
2013-05-06 06:11:00,32.3,32.3,30.24,NNW,342,0.0,0.0,100,0.00,,,0.00,WUHU216PEETBRO,2013-05-06 10:11:00,
2013-05-06 06:16:00,32.3,32.2,30.24,NNW,342,0.0,0.0,100,0.00,,,0.00,WUHU216PEETBRO,2013-05-06 10:16:00,
2013-05-06 06:21:00,32.5,32.4,30.25,NNW,342,0.0,0.0,100,0.00,,,0.00,WUHU216PEETBRO,2013-05-06 10:21:00,
2013-05-06 06:26:00,32.6,32.6,30.25,NNW,342,0.0,0.0,100,0.00,,,0.00,WUHU216PEETBRO,2013-05-06 10:26:00,
2013-05-06 06:31:00,32.6,32.5,30.25,NNW,342,0.0,0.0,100,0.00,,,0.00,WUHU216PEETBRO,2013-05-06 10:31:00,
2013-05-06 06:36:00,33.2,33.2,30.25,NNW,342,0.0,0.0,100,0.00,,,0.00,WUHU216PEETBRO,2013-05-06 10:36:00,
2013-05-06 06:41:00,33.5,33.5,30.25,NNW,342,0.0,0.0,100,0.00,,,0.00,WUHU216PEETBRO,2013-05-06 10:41:00,
2013-05-06 06:46:00,33.8,33.8,30.26,NNW,342,0.0,0.0,100,0.00,,,0.00,WUHU216PEETBRO,2013-05-06 10:46:00,
2013-05-06 06:51:00,34.2,34.2,30.25,NNW,342,0.0,0.0,100,0.00,,,0.00,WUHU216PEETBRO,2013-05-06 10:51:00,
2013-05-06 06:56:00,34.3,34.3,30.26,NNW,342,0.0,0.0,100,0.00,,,0.00,WUHU216PEETBRO,2013-05-06 10:56:00,
2013-05-06 07:01:00,34.9,34.8,30.26,NNW,342,0.0,0.0,100,0.00,,,0.00,WUHU216PEETBRO,2013-05-06 11:01:00,
2013-05-06 07:06:00,35.9,35.9,30.26,NNW,342,0.0,0.0,100,0.00,,,0.00,WUHU216PEETBRO,2013-05-06 11:06:00,
2013-05-06 07:11:00,36.3,36.2,30.26,NNW,342,0.0,0.0,100,0.00,,,0.00,WUHU216PEETBRO,2013-05-06 11:11:00,
2013-05-06 07:16:00,36.7,36.7,30.26,NNW,342,0.0,0.0,100,0.00,,,0.00,WUHU216PEETBRO,2013-05-06 11:16:00,
2013-05-06 07:21:00,36.9,36.9,30.26,NNW,342,0.0,0.0,100,0.00,,,0.00,WUHU216PEETBRO,2013-05-06 11:21:00,
2013-05-06 07:26:00,38.1,38.1,30.26,NNW,342,0.0,0.0,100,0.00,,,0.00,WUHU216PEETBRO,2013-05-06 11:26:00,
2013-05-06 07:31:00,38.5,38.5,30.26,NNW,342,0.0,0.0,100,0.00,,,0.00,WUHU216PEETBRO,2013-05-06 11:31:00,
2013-05-06 07:36:00,39.4,39.4,30.26,ESE,115,1.5,1.5,100,0.00,,,0.00,WUHU216PEETBRO,2013-05-06 11:36:00,
2013-05-06 07:41:00,40.0,40.0,30.26,SSE,160,1.7,2.4,100,0.00,,,0.00,WUHU216PEETBRO,2013-05-06 11:41:00,
2013-05-06 07:46:00,40.4,40.4,30.27,SW,218,1.4,2.4,100,0.00,,,0.00,WUHU216PEETBRO,2013-05-06 11:46:00,
2013-05-06 07:51:00,40.6,40.6,30.26,ESE,119,0.0,1.9,100,0.00,,,0.00,WUHU216PEETBRO,2013-05-06 11:51:00,
2013-05-06 07:56:00,40.3,40.3,30.27,South,184,0.7,1.7,100,0.00,,,0.00,WUHU216PEETBRO,2013-05-06 11:56:00,
2013-05-06 08:01:00,41.2,41.2,30.26,South,184,0.0,1.7,100,0.00,,,0.00,WUHU216PEETBRO,2013-05-06 12:01:00,
2013-05-06 08:06:00,42.1,42.1,30.27,South,184,0.0,0.7,100,0.00,,,0.00,WUHU216PEETBRO,2013-05-06 12:06:00,
2013-05-06 08:11:00,42.6,42.5,30.27,South,184,0.0,0.0,100,0.00,,,0.00,WUHU216PEETBRO,2013-05-06 12:11:00,
2013-05-06 08:16:00,43.0,42.9,30.27,South,184,0.0,0.0,100,0.00,,,0.00,WUHU216PEETBRO,2013-05-06 12:16:00,
2013-05-06 08:21:00,43.2,43.0,30.27,South,169,0.0,2.2,99,0.00,,,0.00,WUHU216PEETBRO,2013-05-06 12:21:00,
2013-05-06 08:26:00,43.5,43.4,30.27,NW,311,0.0,2.3,100,0.00,,,0.00,WUHU216PEETBRO,2013-05-06 12:26:00,
2013-05-06 08:31:00,44.0,43.9,30.27,WNW,283,0.3,2.3,100,0.00,,,0.00,WUHU216PEETBRO,2013-05-06 12:31:00,
2013-05-06 08:36:00,45.1,44.9,30.27,South,177,2.1,3.2,99,0.00,,,0.00,WUHU216PEETBRO,2013-05-06 12:36:00,
2013-05-06 08:41:00,46.2,45.9,30.27,NW,314,0.0,3.2,99,0.00,,,0.00,WUHU216PEETBRO,2013-05-06 12:41:00,
2013-05-06 08:46:00,48.1,47.8,30.27,East,94,0.6,2.4,99,0.00,,,0.00,WUHU216PEETBRO,2013-05-06 12:46:00,
2013-05-06 08:51:00,49.3,48.8,30.27,SE,145,2.2,3.7,98,0.00,,,0.00,WUHU216PEETBRO,2013-05-06 12:51:00,
2013-05-06 08:56:00,50.3,49.5,30.27,ESE,108,3.1,4.5,97,0.00,,,0.00,WUHU216PEETBRO,2013-05-06 12:56:00,
2013-05-06 09:01:00,50.5,49.3,30.27,SSW,198,3.5,6.6,96,0.00,,,0.00,WUHU216PEETBRO,2013-05-06 13:01:00,
2013-05-06 09:06:00,51.0,49.7,30.27,ESE,119,3.0,6.6,95,0.00,,,0.00,WUHU216PEETBRO,2013-05-06 13:06:00,
2013-05-06 09:11:00,51.7,50.0,30.27,SW,234,1.7,5.6,94,0.00,,,0.00,WUHU216PEETBRO,2013-05-06 13:11:00,
2013-05-06 09:16:00,52.1,50.2,30.27,South,173,3.2,5.6,94,0.00,,,0.00,WUHU216PEETBRO,2013-05-06 13:16:00,
2013-05-06 09:21:00,53.0,51.2,30.27,WSW,237,3.0,5.6,94,0.00,,,0.00,WUHU216PEETBRO,2013-05-06 13:21:00,
2013-05-06 09:26:00,53.6,49.4,30.27,West,279,1.8,5.0,86,0.00,,,0.00,WUHU216PEETBRO,2013-05-06 13:26:00,
2013-05-06 09:31:00,53.5,47.9,30.27,SSW,194,0.0,4.7,81,0.00,,,0.00,WUHU216PEETBRO,2013-05-06 13:31:00,
2013-05-06 09:36:00,54.1,49.1,30.27,SSW,194,0.0,4.0,83,0.00,,,0.00,WUHU216PEETBRO,2013-05-06 13:36:00,
2013-05-06 09:41:00,54.2,48.6,30.27,SE,142,5.1,7.1,81,0.00,,,0.00,WUHU216PEETBRO,2013-05-06 13:41:00,
2013-05-06 09:46:00,54.4,48.5,30.27,SE,145,0.0,7.1,80,0.00,,,0.00,WUHU216PEETBRO,2013-05-06 13:46:00,
2013-05-06 09:51:00,53.3,46.8,30.27,West,263,0.0,5.9,79,0.00,,,0.00,WUHU216PEETBRO,2013-05-06 13:51:00,
2013-05-06 09:56:00,53.4,47.8,30.27,WNW,294,4.7,5.7,81,0.00,,,0.00,WUHU216PEETBRO,2013-05-06 13:56:00,
2013-05-06 10:01:00,53.4,47.3,30.26,East,80,2.4,5.7,80,0.00,,,0.00,WUHU216PEETBRO,2013-05-06 14:01:00,
2013-05-06 10:06:00,53.7,47.5,30.26,SW,234,0.0,6.7,79,0.00,,,0.00,WUHU216PEETBRO,2013-05-06 14:06:00,
2013-05-06 10:11:00,54.2,47.7,30.27,South,169,0.4,6.7,79,0.00,,,0.00,WUHU216PEETBRO,2013-05-06 14:11:00,
2013-05-06 10:16:00,54.4,47.4,30.27,SSE,162,0.0,5.9,77,0.00,,,0.00,WUHU216PEETBRO,2013-05-06 14:16:00,
2013-05-06 10:21:00,54.2,45.9,30.27,NW,320,3.9,6.2,73,0.00,,,0.00,WUHU216PEETBRO,2013-05-06 14:21:00,
2013-05-06 10:26:00,54.2,46.0,30.27,NW,321,3.0,6.2,74,0.00,,,0.00,WUHU216PEETBRO,2013-05-06 14:26:00,
2013-05-06 10:31:00,53.8,45.1,30.27,SSW,193,3.0,5.8,72,0.00,,,0.00,WUHU216PEETBRO,2013-05-06 14:31:00,
2013-05-06 10:36:00,54.8,46.4,30.26,SSE,149,0.3,5.8,73,0.00,,,0.00,WUHU216PEETBRO,2013-05-06 14:36:00,
2013-05-06 10:41:00,55.6,46.6,30.26,West,265,1.1,5.8,71,0.00,,,0.00,WUHU216PEETBRO,2013-05-06 14:41:00,
2013-05-06 10:46:00,55.2,46.1,30.26,West,266,0.6,7.3,71,0.00,,,0.00,WUHU216PEETBRO,2013-05-06 14:46:00,
2013-05-06 10:51:00,55.7,46.9,30.26,SE,145,1.4,7.3,72,0.00,,,0.00,WUHU216PEETBRO,2013-05-06 14:51:00,
2013-05-06 10:56:00,57.0,46.4,30.26,NW,324,0.4,5.2,67,0.00,,,0.00,WUHU216PEETBRO,2013-05-06 14:56:00,
2013-05-06 11:01:00,57.6,46.5,30.25,WNW,294,2.7,5.2,66,0.00,,,0.00,WUHU216PEETBRO,2013-05-06 15:01:00,
2013-05-06 11:06:00,58.4,47.1,30.25,SW,217,0.0,5.2,66,0.00,,,0.00,WUHU216PEETBRO,2013-05-06 15:06:00,
2013-05-06 11:11:00,59.5,46.9,30.25,WNW,290,0.0,5.2,63,0.00,,,0.00,WUHU216PEETBRO,2013-05-06 15:11:00,
2013-05-06 11:16:00,59.3,46.3,30.25,West,261,0.0,5.7,62,0.00,,,0.00,WUHU216PEETBRO,2013-05-06 15:16:00,
2013-05-06 11:21:00,60.0,44.9,30.24,South,172,1.5,6.1,57,0.00,,,0.00,WUHU216PEETBRO,2013-05-06 15:21:00,
2013-05-06 11:26:00,60.7,45.0,30.24,West,279,2.2,6.1,56,0.00,,,0.00,WUHU216PEETBRO,2013-05-06 15:26:00,
2013-05-06 11:31:00,61.7,46.4,30.24,SSE,162,0.0,4.9,57,0.00,,,0.00,WUHU216PEETBRO,2013-05-06 15:31:00,
2013-05-06 11:36:00,63.2,44.1,30.24,NW,306,3.6,3.6,50,0.00,,,0.00,WUHU216PEETBRO,2013-05-06 15:36:00,
2013-05-06 11:41:00,63.9,45.6,30.24,WNW,300,1.8,4.1,51,0.00,,,0.00,WUHU216PEETBRO,2013-05-06 15:41:00,
2013-05-06 11:46:00,63.9,44.4,30.24,WSW,242,0.0,4.1,49,0.00,,,0.00,WUHU216PEETBRO,2013-05-06 15:46:00,
2013-05-06 11:51:00,64.4,44.1,30.23,NNW,342,0.0,5.3,48,0.00,,,0.00,WUHU216PEETBRO,2013-05-06 15:51:00,
2013-05-06 11:56:00,63.7,42.9,30.23,NW,304,2.2,6.7,47,0.00,,,0.00,WUHU216PEETBRO,2013-05-06 15:56:00,
2013-05-06 12:01:00,63.8,43.6,30.23,NW,318,1.8,6.7,48,0.00,,,0.00,WUHU216PEETBRO,2013-05-06 16:01:00,
2013-05-06 12:06:00,63.8,44.3,30.22,WNW,286,0.0,4.3,49,0.00,,,0.00,WUHU216PEETBRO,2013-05-06 16:06:00,
2013-05-06 12:11:00,64.7,45.0,30.22,NNE,28,3.5,7.2,49,0.00,,,0.00,WUHU216PEETBRO,2013-05-06 16:11:00,
2013-05-06 12:16:00,65.7,46.0,30.22,NW,310,3.0,7.2,49,0.00,,,0.00,WUHU216PEETBRO,2013-05-06 16:16:00,
2013-05-06 12:21:00,66.0,45.4,30.21,South,179,0.9,8.1,47,0.00,,,0.00,WUHU216PEETBRO,2013-05-06 16:21:00,
2013-05-06 12:26:00,65.8,44.3,30.21,SSE,152,0.2,8.1,46,0.00,,,0.00,WUHU216PEETBRO,2013-05-06 16:26:00,
2013-05-06 12:31:00,65.9,45.3,30.21,SSW,201,0.0,6.9,47,0.00,,,0.00,WUHU216PEETBRO,2013-05-06 16:31:00,
2013-05-06 12:36:00,66.8,45.3,30.21,East,90,5.9,7.8,46,0.00,,,0.00,WUHU216PEETBRO,2013-05-06 16:36:00,
2013-05-06 12:41:00,67.5,44.6,30.21,SSW,213,0.0,7.8,44,0.00,,,0.00,WUHU216PEETBRO,2013-05-06 16:41:00,
2013-05-06 12:46:00,66.9,42.6,30.21,WNW,296,0.0,6.8,42,0.00,,,0.00,WUHU216PEETBRO,2013-05-06 16:46:00,
2013-05-06 12:51:00,66.8,41.8,30.21,NW,311,3.4,6.5,40,0.00,,,0.00,WUHU216PEETBRO,2013-05-06 16:51:00,
2013-05-06 12:56:00,66.9,44.1,30.21,WNW,300,0.0,6.5,44,0.00,,,0.00,WUHU216PEETBRO,2013-05-06 16:56:00,
2013-05-06 13:01:00,68.3,45.2,30.20,ESE,114,0.0,5.7,44,0.00,,,0.00,WUHU216PEETBRO,2013-05-06 17:01:00,
2013-05-06 13:06:00,67.3,41.7,30.20,WNW,303,0.6,6.2,40,0.00,,,0.00,WUHU216PEETBRO,2013-05-06 17:06:00,
2013-05-06 13:11:00,67.9,42.8,30.20,NW,323,0.0,6.2,40,0.00,,,0.00,WUHU216PEETBRO,2013-05-06 17:11:00,
2013-05-06 13:16:00,69.0,42.5,30.20,SE,146,3.9,7.3,38,0.00,,,0.00,WUHU216PEETBRO,2013-05-06 17:16:00,
2013-05-06 13:21:00,69.4,42.4,30.20,NW,316,2.6,7.3,38,0.00,,,0.00,WUHU216PEETBRO,2013-05-06 17:21:00,
2013-05-06 13:26:00,69.7,41.4,30.20,NNW,342,0.0,6.2,36,0.00,,,0.00,WUHU216PEETBRO,2013-05-06 17:26:00,
2013-05-06 13:31:00,70.5,43.7,30.20,West,262,0.7,4.8,38,0.00,,,0.00,WUHU216PEETBRO,2013-05-06 17:31:00,
2013-05-06 13:36:00,70.4,41.5,30.20,WSW,246,0.0,7.5,35,0.00,,,0.00,WUHU216PEETBRO,2013-05-06 17:36:00,
2013-05-06 13:41:00,71.5,41.6,30.19,WSW,244,2.3,7.5,34,0.00,,,0.00,WUHU216PEETBRO,2013-05-06 17:41:00,
2013-05-06 13:46:00,71.9,42.1,30.19,NNW,341,0.0,3.6,34,0.00,,,0.00,WUHU216PEETBRO,2013-05-06 17:46:00,
2013-05-06 13:51:00,72.3,41.7,30.19,SW,234,0.0,4.4,33,0.00,,,0.00,WUHU216PEETBRO,2013-05-06 17:51:00,
2013-05-06 13:56:00,72.1,41.6,30.19,WNW,292,6.2,6.2,34,0.00,,,0.00,WUHU216PEETBRO,2013-05-06 17:56:00,
2013-05-06 14:01:00,72.3,41.6,30.19,SW,214,5.0,10.7,33,0.00,,,0.00,WUHU216PEETBRO,2013-05-06 18:01:00,
2013-05-06 14:06:00,72.5,42.8,30.18,SSW,201,1.7,10.7,35,0.00,,,0.00,WUHU216PEETBRO,2013-05-06 18:06:00,
2013-05-06 14:11:00,72.6,40.6,30.18,ESE,119,1.1,9.3,32,0.00,,,0.00,WUHU216PEETBRO,2013-05-06 18:11:00,
2013-05-06 14:16:00,73.3,41.0,30.18,East,95,0.0,9.3,31,0.00,,,0.00,WUHU216PEETBRO,2013-05-06 18:16:00,
2013-05-06 14:21:00,73.2,39.6,30.18,NW,311,0.0,8.5,30,0.00,,,0.00,WUHU216PEETBRO,2013-05-06 18:21:00,
2013-05-06 14:26:00,72.8,36.9,30.18,SE,143,1.6,4.7,27,0.00,,,0.00,WUHU216PEETBRO,2013-05-06 18:26:00,
2013-05-06 14:31:00,72.6,43.0,30.18,SSW,211,2.1,7.3,35,0.00,,,0.00,WUHU216PEETBRO,2013-05-06 18:31:00,
2013-05-06 14:36:00,72.1,49.4,30.17,ESE,119,2.4,12.8,45,0.00,,,0.00,WUHU216PEETBRO,2013-05-06 18:36:00,
2013-05-06 14:41:00,71.5,49.1,30.17,SE,131,2.1,12.8,45,0.00,,,0.00,WUHU216PEETBRO,2013-05-06 18:41:00,
2013-05-06 14:46:00,70.7,48.7,30.17,WSW,253,0.0,11.7,46,0.00,,,0.00,WUHU216PEETBRO,2013-05-06 18:46:00,
2013-05-06 14:51:00,70.9,49.3,30.17,South,174,3.2,8.5,46,0.00,,,0.00,WUHU216PEETBRO,2013-05-06 18:51:00,
2013-05-06 14:56:00,71.5,49.9,30.17,WSW,252,2.1,8.5,46,0.00,,,0.00,WUHU216PEETBRO,2013-05-06 18:56:00,
2013-05-06 15:01:00,71.5,50.1,30.17,SW,234,3.2,9.4,47,0.00,,,0.00,WUHU216PEETBRO,2013-05-06 19:01:00,
2013-05-06 15:06:00,70.5,49.9,30.17,SSW,196,0.0,9.4,48,0.00,,,0.00,WUHU216PEETBRO,2013-05-06 19:06:00,
2013-05-06 15:11:00,71.1,49.7,30.16,WNW,296,2.7,6.3,47,0.00,,,0.00,WUHU216PEETBRO,2013-05-06 19:11:00,
2013-05-06 15:16:00,70.4,50.1,30.16,South,179,1.0,9.4,49,0.00,,,0.00,WUHU216PEETBRO,2013-05-06 19:16:00,
2013-05-06 15:21:00,70.6,50.6,30.16,SSW,210,1.4,12.1,49,0.00,,,0.00,WUHU216PEETBRO,2013-05-06 19:21:00,
2013-05-06 15:26:00,70.6,50.3,30.16,West,261,1.2,12.1,49,0.00,,,0.00,WUHU216PEETBRO,2013-05-06 19:26:00,
2013-05-06 15:31:00,69.9,50.1,30.16,South,183,5.0,9.4,49,0.00,,,0.00,WUHU216PEETBRO,2013-05-06 19:31:00,
2013-05-06 15:36:00,69.4,49.9,30.16,WSW,252,1.9,7.9,50,0.00,,,0.00,WUHU216PEETBRO,2013-05-06 19:36:00,
2013-05-06 15:41:00,69.2,49.1,30.16,South,173,3.2,7.9,49,0.00,,,0.00,WUHU216PEETBRO,2013-05-06 19:41:00,
2013-05-06 15:46:00,69.6,49.7,30.16,WSW,239,2.1,8.3,49,0.00,,,0.00,WUHU216PEETBRO,2013-05-06 19:46:00,
2013-05-06 15:51:00,69.4,50.2,30.15,SW,215,2.4,8.3,50,0.00,,,0.00,WUHU216PEETBRO,2013-05-06 19:51:00,
2013-05-06 15:56:00,68.8,50.6,30.15,WNW,296,3.1,7.4,52,0.00,,,0.00,WUHU216PEETBRO,2013-05-06 19:56:00,
2013-05-06 16:01:00,68.0,49.7,30.15,WNW,285,0.0,7.8,52,0.00,,,0.00,WUHU216PEETBRO,2013-05-06 20:01:00,
2013-05-06 16:06:00,68.3,50.0,30.15,West,266,2.8,7.8,52,0.00,,,0.00,WUHU216PEETBRO,2013-05-06 20:06:00,
2013-05-06 16:11:00,67.4,48.9,30.15,SSE,153,3.2,12.4,51,0.00,,,0.00,WUHU216PEETBRO,2013-05-06 20:11:00,
2013-05-06 16:16:00,68.4,50.3,30.15,East,100,9.5,12.4,52,0.00,,,0.00,WUHU216PEETBRO,2013-05-06 20:16:00,
2013-05-06 16:21:00,67.3,49.5,30.15,WNW,285,1.7,10.7,53,0.00,,,0.00,WUHU216PEETBRO,2013-05-06 20:21:00,
2013-05-06 16:26:00,67.2,49.3,30.14,SSE,156,1.0,10.4,53,0.00,,,0.00,WUHU216PEETBRO,2013-05-06 20:26:00,
2013-05-06 16:31:00,68.3,50.3,30.15,SE,141,8.1,8.4,53,0.00,,,0.00,WUHU216PEETBRO,2013-05-06 20:31:00,
2013-05-06 16:36:00,67.4,49.0,30.14,NW,323,1.7,13.4,52,0.00,,,0.00,WUHU216PEETBRO,2013-05-06 20:36:00,
2013-05-06 16:41:00,68.2,50.2,30.14,SW,224,1.1,13.4,52,0.00,,,0.00,WUHU216PEETBRO,2013-05-06 20:41:00,
2013-05-06 16:46:00,66.6,48.4,30.14,SW,228,0.8,10.3,52,0.00,,,0.00,WUHU216PEETBRO,2013-05-06 20:46:00,
2013-05-06 16:51:00,66.7,49.3,30.14,SE,129,10.6,12.1,53,0.00,,,0.00,WUHU216PEETBRO,2013-05-06 20:51:00,
2013-05-06 16:56:00,66.4,49.1,30.14,SSE,166,8.3,12.1,54,0.00,,,0.00,WUHU216PEETBRO,2013-05-06 20:56:00,
2013-05-06 17:01:00,66.1,49.3,30.14,East,81,3.8,12.4,55,0.00,,,0.00,WUHU216PEETBRO,2013-05-06 21:01:00,
2013-05-06 17:06:00,65.7,49.5,30.14,SE,139,3.3,12.4,56,0.00,,,0.00,WUHU216PEETBRO,2013-05-06 21:06:00,
2013-05-06 17:11:00,64.4,48.9,30.14,WNW,301,3.0,11.2,57,0.00,,,0.00,WUHU216PEETBRO,2013-05-06 21:11:00,
2013-05-06 17:16:00,64.4,49.4,30.14,ESE,121,0.6,10.4,58,0.00,,,0.00,WUHU216PEETBRO,2013-05-06 21:16:00,
2013-05-06 17:21:00,63.5,48.7,30.14,SE,141,5.1,11.4,58,0.00,,,0.00,WUHU216PEETBRO,2013-05-06 21:21:00,
2013-05-06 17:26:00,64.4,49.4,30.14,WSW,251,1.9,11.4,58,0.00,,,0.00,WUHU216PEETBRO,2013-05-06 21:26:00,
2013-05-06 17:31:00,63.8,48.1,30.14,WNW,296,1.4,10.1,56,0.00,,,0.00,WUHU216PEETBRO,2013-05-06 21:31:00,
2013-05-06 17:36:00,63.9,48.6,30.14,South,170,0.0,9.9,57,0.00,,,0.00,WUHU216PEETBRO,2013-05-06 21:36:00,
2013-05-06 17:41:00,64.3,49.0,30.14,SSW,208,0.8,9.8,57,0.00,,,0.00,WUHU216PEETBRO,2013-05-06 21:41:00,
2013-05-06 17:46:00,63.9,48.8,30.14,South,189,3.5,8.3,58,0.00,,,0.00,WUHU216PEETBRO,2013-05-06 21:46:00,
2013-05-06 17:51:00,63.7,49.1,30.14,South,180,3.4,7.8,59,0.00,,,0.00,WUHU216PEETBRO,2013-05-06 21:51:00,
2013-05-06 17:56:00,63.2,48.5,30.14,SE,141,6.3,9.3,59,0.00,,,0.00,WUHU216PEETBRO,2013-05-06 21:56:00,
2013-05-06 18:01:00,64.2,49.2,30.14,South,173,8.7,9.8,58,0.00,,,0.00,WUHU216PEETBRO,2013-05-06 22:01:00,
2013-05-06 18:06:00,63.8,48.7,30.14,SSW,208,1.2,10.8,58,0.00,,,0.00,WUHU216PEETBRO,2013-05-06 22:06:00,
2013-05-06 18:11:00,64.0,48.8,30.14,NW,317,1.8,10.8,57,0.00,,,0.00,WUHU216PEETBRO,2013-05-06 22:11:00,
2013-05-06 18:16:00,63.7,49.3,30.14,SE,139,6.3,11.3,59,0.00,,,0.00,WUHU216PEETBRO,2013-05-06 22:16:00,
2013-05-06 18:21:00,62.6,49.5,30.14,East,101,7.3,12.6,62,0.00,,,0.00,WUHU216PEETBRO,2013-05-06 22:21:00,
2013-05-06 18:26:00,61.5,49.2,30.14,SE,145,4.7,12.6,64,0.00,,,0.00,WUHU216PEETBRO,2013-05-06 22:26:00,
2013-05-06 18:31:00,61.5,49.8,30.14,SE,138,5.3,9.6,65,0.00,,,0.00,WUHU216PEETBRO,2013-05-06 22:31:00,
2013-05-06 18:36:00,60.5,50.2,30.14,SE,139,3.9,9.6,68,0.00,,,0.00,WUHU216PEETBRO,2013-05-06 22:36:00,
2013-05-06 18:41:00,59.8,50.0,30.14,ESE,115,5.3,9.6,70,0.00,,,0.00,WUHU216PEETBRO,2013-05-06 22:41:00,
2013-05-06 18:46:00,59.4,50.4,30.14,SE,128,2.5,8.4,72,0.00,,,0.00,WUHU216PEETBRO,2013-05-06 22:46:00,
2013-05-06 18:51:00,58.9,50.3,30.14,SE,146,3.4,7.6,73,0.00,,,0.00,WUHU216PEETBRO,2013-05-06 22:51:00,
2013-05-06 18:56:00,59.0,51.3,30.14,ESE,115,2.2,7.6,75,0.00,,,0.00,WUHU216PEETBRO,2013-05-06 22:56:00,
2013-05-06 19:02:00,58.3,50.7,30.14,ESE,119,5.8,7.1,76,0.00,,,0.00,WUHU216PEETBRO,2013-05-06 23:02:00,
2013-05-06 19:07:00,57.5,50.4,30.14,SSW,204,3.2,7.1,77,0.00,,,0.00,WUHU216PEETBRO,2013-05-06 23:07:00,
2013-05-06 19:12:00,57.2,50.2,30.14,South,174,1.9,7.0,77,0.00,,,0.00,WUHU216PEETBRO,2013-05-06 23:12:00,
2013-05-06 19:17:00,56.4,50.0,30.14,SE,135,1.6,5.3,79,0.00,,,0.00,WUHU216PEETBRO,2013-05-06 23:17:00,
2013-05-06 19:22:00,55.8,50.0,30.14,East,87,1.6,5.9,81,0.00,,,0.00,WUHU216PEETBRO,2013-05-06 23:22:00,
2013-05-06 19:27:00,55.4,50.2,30.14,South,172,2.7,6.5,83,0.00,,,0.00,WUHU216PEETBRO,2013-05-06 23:27:00,
2013-05-06 19:32:00,55.2,50.1,30.14,SE,129,3.2,6.5,83,0.00,,,0.00,WUHU216PEETBRO,2013-05-06 23:32:00,
2013-05-06 19:37:00,54.9,50.1,30.14,East,91,3.1,5.8,84,0.00,,,0.00,WUHU216PEETBRO,2013-05-06 23:37:00,
2013-05-06 19:42:00,54.1,49.6,30.14,ENE,74,2.4,5.7,85,0.00,,,0.00,WUHU216PEETBRO,2013-05-06 23:42:00,
2013-05-06 19:47:00,53.8,49.7,30.14,SSE,152,4.9,5.5,86,0.00,,,0.00,WUHU216PEETBRO,2013-05-06 23:47:00,
2013-05-06 19:52:00,53.4,49.6,30.14,ESE,112,2.4,5.5,87,0.00,,,0.00,WUHU216PEETBRO,2013-05-06 23:52:00,
2013-05-06 19:57:00,53.1,49.7,30.14,ESE,109,2.9,5.4,88,0.00,,,0.00,WUHU216PEETBRO,2013-05-06 23:57:00,
2013-05-06 20:02:00,53.0,49.9,30.14,ESE,121,2.2,5.5,89,0.00,,,0.00,WUHU216PEETBRO,2013-05-07 00:02:00,
2013-05-06 20:07:00,52.3,49.4,30.14,SE,135,4.0,5.5,90,0.00,,,0.00,WUHU216PEETBRO,2013-05-07 00:07:00,
2013-05-06 20:12:00,51.7,49.4,30.14,ESE,122,1.7,6.1,92,0.00,,,0.00,WUHU216PEETBRO,2013-05-07 00:12:00,
2013-05-06 20:17:00,51.3,49.0,30.14,SE,146,1.1,6.1,92,0.00,,,0.00,WUHU216PEETBRO,2013-05-07 00:17:00,
2013-05-06 20:22:00,51.4,49.3,30.15,SE,131,2.5,6.0,93,0.00,,,0.00,WUHU216PEETBRO,2013-05-07 00:22:00,
2013-05-06 20:27:00,50.4,48.7,30.15,SE,136,1.1,6.0,94,0.00,,,0.00,WUHU216PEETBRO,2013-05-07 00:27:00,
2013-05-06 20:32:00,50.2,48.8,30.15,SE,135,2.9,6.3,95,0.00,,,0.00,WUHU216PEETBRO,2013-05-07 00:32:00,
2013-05-06 20:37:00,49.8,48.4,30.15,SE,125,2.7,6.3,95,0.00,,,0.00,WUHU216PEETBRO,2013-05-07 00:37:00,
2013-05-06 20:42:00,49.6,48.2,30.15,SE,139,2.1,5.2,95,0.00,,,0.00,WUHU216PEETBRO,2013-05-07 00:42:00,
2013-05-06 20:47:00,49.4,48.2,30.15,SE,142,1.8,6.1,96,0.00,,,0.00,WUHU216PEETBRO,2013-05-07 00:47:00,
2013-05-06 20:52:00,49.0,47.9,30.16,ENE,77,0.0,6.1,96,0.00,,,0.00,WUHU216PEETBRO,2013-05-07 00:52:00,
2013-05-06 20:57:00,48.8,47.7,30.16,ESE,109,1.6,5.2,96,0.00,,,0.00,WUHU216PEETBRO,2013-05-07 00:57:00,
2013-05-06 21:02:00,48.8,47.8,30.16,SE,136,1.7,4.2,96,0.00,,,0.00,WUHU216PEETBRO,2013-05-07 01:02:00,
2013-05-06 21:07:00,47.9,47.0,30.16,SE,136,2.4,4.3,97,0.00,,,0.00,WUHU216PEETBRO,2013-05-07 01:07:00,
2013-05-06 21:12:00,47.4,46.5,30.16,East,98,1.2,4.3,97,0.00,,,0.00,WUHU216PEETBRO,2013-05-07 01:12:00,
2013-05-06 21:17:00,47.5,46.6,30.16,ENE,69,0.7,4.5,97,0.00,,,0.00,WUHU216PEETBRO,2013-05-07 01:17:00,
2013-05-06 21:22:00,47.7,46.9,30.16,NNE,29,0.4,4.5,97,0.00,,,0.00,WUHU216PEETBRO,2013-05-07 01:22:00,
2013-05-06 21:27:00,47.0,46.3,30.16,ENE,76,0.8,3.5,97,0.00,,,0.00,WUHU216PEETBRO,2013-05-07 01:27:00,
2013-05-06 21:32:00,47.0,46.4,30.16,East,97,0.8,3.1,98,0.00,,,0.00,WUHU216PEETBRO,2013-05-07 01:32:00,
2013-05-06 21:37:00,46.9,46.3,30.16,ESE,122,2.9,3.4,98,0.00,,,0.00,WUHU216PEETBRO,2013-05-07 01:37:00,
2013-05-06 21:42:00,46.5,45.9,30.17,East,93,0.0,4.4,98,0.00,,,0.00,WUHU216PEETBRO,2013-05-07 01:42:00,
2013-05-06 21:47:00,46.4,45.9,30.17,ESE,114,0.0,4.4,98,0.00,,,0.00,WUHU216PEETBRO,2013-05-07 01:47:00,
2013-05-06 21:52:00,46.7,46.3,30.17,ESE,114,0.0,1.0,98,0.00,,,0.00,WUHU216PEETBRO,2013-05-07 01:52:00,
2013-05-06 21:57:00,46.8,46.4,30.17,ESE,114,0.0,0.0,98,0.00,,,0.00,WUHU216PEETBRO,2013-05-07 01:57:00,
2013-05-06 22:02:00,46.8,46.4,30.16,ESE,114,2.5,4.5,99,0.00,,,0.00,WUHU216PEETBRO,2013-05-07 02:02:00,
2013-05-06 22:07:00,47.1,46.8,30.16,SSE,152,0.0,4.6,99,0.00,,,0.00,WUHU216PEETBRO,2013-05-07 02:07:00,
2013-05-06 22:12:00,47.1,46.7,30.17,SE,131,0.9,4.6,99,0.00,,,0.00,WUHU216PEETBRO,2013-05-07 02:12:00,
2013-05-06 22:17:00,46.7,46.3,30.16,SE,132,1.4,4.4,99,0.00,,,0.00,WUHU216PEETBRO,2013-05-07 02:17:00,
2013-05-06 22:22:00,46.5,46.2,30.16,South,186,0.0,5.0,99,0.00,,,0.00,WUHU216PEETBRO,2013-05-07 02:22:00,
2013-05-06 22:27:00,47.0,46.7,30.16,East,85,0.0,5.0,99,0.00,,,0.00,WUHU216PEETBRO,2013-05-07 02:27:00,
2013-05-06 22:32:00,47.1,46.7,30.17,ESE,118,2.4,2.9,99,0.00,,,0.00,WUHU216PEETBRO,2013-05-07 02:32:00,
2013-05-06 22:37:00,46.8,46.5,30.16,East,94,2.1,2.9,99,0.00,,,0.00,WUHU216PEETBRO,2013-05-07 02:37:00,
2013-05-06 22:42:00,47.1,46.8,30.16,East,84,0.0,3.2,99,0.00,,,0.00,WUHU216PEETBRO,2013-05-07 02:42:00,
2013-05-06 22:47:00,47.1,46.8,30.16,SE,146,0.0,3.7,99,0.00,,,0.00,WUHU216PEETBRO,2013-05-07 02:47:00,
2013-05-06 22:52:00,46.4,46.1,30.16,SSE,159,2.8,3.7,99,0.00,,,0.00,WUHU216PEETBRO,2013-05-07 02:52:00,
2013-05-06 22:57:00,46.8,46.5,30.16,ESE,119,0.0,3.9,99,0.00,,,0.00,WUHU216PEETBRO,2013-05-07 02:57:00,
2013-05-06 23:02:00,47.0,46.6,30.16,SSE,156,3.2,3.9,99,0.00,,,0.00,WUHU216PEETBRO,2013-05-07 03:02:00,
2013-05-06 23:07:00,47.2,46.9,30.16,ESE,114,0.0,3.9,99,0.00,,,0.00,WUHU216PEETBRO,2013-05-07 03:07:00,
2013-05-06 23:12:00,47.0,46.7,30.16,SE,142,0.0,2.8,99,0.00,,,0.00,WUHU216PEETBRO,2013-05-07 03:12:00,
2013-05-06 23:17:00,46.9,46.6,30.16,SE,142,0.0,1.9,99,0.00,,,0.00,WUHU216PEETBRO,2013-05-07 03:17:00,
2013-05-06 23:22:00,46.9,46.6,30.16,SE,142,0.7,0.7,99,0.00,,,0.00,WUHU216PEETBRO,2013-05-07 03:22:00,
2013-05-06 23:27:00,46.9,46.7,30.16,SE,139,0.0,2.7,99,0.00,,,0.00,WUHU216PEETBRO,2013-05-07 03:27:00,
2013-05-06 23:32:00,46.9,46.7,30.16,SE,139,0.0,2.7,99,0.00,,,0.00,WUHU216PEETBRO,2013-05-07 03:32:00,
2013-05-06 23:37:00,46.9,46.7,30.16,SE,139,0.0,0.0,99,0.00,,,0.00,WUHU216PEETBRO,2013-05-07 03:37:00,
2013-05-06 23:42:00,46.2,46.0,30.16,SE,139,0.0,0.0,99,0.00,,,0.00,WUHU216PEETBRO,2013-05-07 03:42:00,
2013-05-06 23:47:00,47.0,46.8,30.16,SE,138,0.0,2.4,99,0.00,,,0.00,WUHU216PEETBRO,2013-05-07 03:47:00,
2013-05-06 23:52:00,46.7,46.5,30.16,SE,138,0.0,2.4,99,0.00,,,0.00,WUHU216PEETBRO,2013-05-07 03:52:00,
2013-05-06 23:57:00,46.8,46.6,30.16,SSE,159,2.1,2.1,99,0.00,,,0.00,WUHU216PEETBRO,2013-05-07 03:57:00,